Location: ???? ????
(41.4149°N, 22.8816°E)
Time: 15:01:32
(UTC+00:00)

Cosmos 1536 - Pass Details

Date: 14 July 2020
Orbit: 539 x 559 km, 82.5° (Epoch: 04 August)

Event Time Altitude Azimuth Distance (km) Brightness Sun altitude
Exits shadow 00:27:20 36° 131° (SE) 889 3.7 -21.7°
Maximum altitude 00:28:19 44° 93° (E) 781 3.7 -21.6°
Drops below altitude 10° 00:32:11 10° 21° (NNE) 1,846 6.6 -21.3°
Sets 00:34:25 0° 15° (NNE) 2,743 7.8 -21.1°
